TimeEST,TemperatureF,Dew PointF,Humidity,Sea Level PressureIn,VisibilityMPH,Wind Direction,Wind SpeedMPH,Gust SpeedMPH,PrecipitationIn,Events,Conditions,WindDirDegrees,DateUTC
12:56 AM,24.1,10.0,55,29.95,10.0,WNW,11.5,21.9,N/A,,Clear,290,2013-02-21 05:56:00
1:56 AM,24.1,10.0,55,29.94,10.0,WNW,12.7,19.6,N/A,,Clear,290,2013-02-21 06:56:00
2:56 AM,23.0,10.0,58,29.94,10.0,West,11.5,17.3,N/A,,Clear,280,2013-02-21 07:56:00
3:56 AM,24.1,10.0,55,29.94,10.0,West,12.7,19.6,N/A,,Clear,280,2013-02-21 08:56:00
4:56 AM,23.0,10.0,58,29.94,10.0,West,17.3,21.9,N/A,,Clear,280,2013-02-21 09:56:00
5:56 AM,24.1,10.9,57,29.96,10.0,WNW,13.8,-,N/A,,Mostly Cloudy,290,2013-02-21 10:56:00
6:56 AM,25.0,10.0,53,29.97,9.0,WNW,17.3,27.6,0.00,,Mostly Cloudy,300,2013-02-21 11:56:00
7:56 AM,26.1,9.0,49,29.97,10.0,WNW,15.0,32.2,N/A,,Partly Cloudy,290,2013-02-21 12:56:00
8:56 AM,27.0,10.0,49,29.97,10.0,WNW,20.7,31.1,N/A,,Partly Cloudy,300,2013-02-21 13:56:00
9:56 AM,28.9,10.9,47,29.96,10.0,WNW,15.0,32.2,N/A,,Partly Cloudy,290,2013-02-21 14:56:00
10:56 AM,30.0,12.0,47,29.96,10.0,NW,20.7,34.5,N/A,,Partly Cloudy,310,2013-02-21 15:56:00
11:56 AM,32.0,12.9,45,29.94,10.0,NW,28.8,34.5,N/A,,Scattered Clouds,310,2013-02-21 16:56:00
12:56 PM,32.0,12.0,44,29.93,10.0,West,25.3,33.4,N/A,,Partly Cloudy,280,2013-02-21 17:56:00
1:56 PM,32.0,12.9,45,29.93,10.0,WNW,19.6,34.5,N/A,,Partly Cloudy,300,2013-02-21 18:56:00
2:56 PM,33.1,14.0,46,29.95,10.0,NW,18.4,28.8,N/A,,Partly Cloudy,310,2013-02-21 19:56:00
3:56 PM,33.1,12.9,43,29.96,10.0,WNW,23.0,32.2,N/A,,Partly Cloudy,300,2013-02-21 20:56:00
4:56 PM,32.0,12.9,45,30.01,10.0,NW,19.6,28.8,N/A,,Partly Cloudy,310,2013-02-21 21:56:00
5:56 PM,30.9,14.0,50,30.06,10.0,NNW,23.0,28.8,N/A,,Clear,330,2013-02-21 22:56:00
6:56 PM,30.0,14.0,51,30.07,10.0,NNW,20.7,28.8,N/A,,Clear,340,2013-02-21 23:56:00
7:56 PM,28.0,12.9,53,30.13,10.0,NNW,23.0,32.2,N/A,,Clear,330,2013-02-22 00:56:00
8:56 PM,27.0,12.9,56,30.19,10.0,NNW,21.9,32.2,N/A,,Clear,330,2013-02-22 01:56:00
9:56 PM,27.0,14.0,58,30.21,10.0,NNW,17.3,26.5,N/A,,Clear,330,2013-02-22 02:56:00
10:56 PM,26.1,14.0,60,30.23,10.0,NNW,12.7,21.9,N/A,,Clear,340,2013-02-22 03:56:00
11:56 PM,26.1,14.0,60,30.26,10.0,NNW,16.1,-,N/A,,Clear,340,2013-02-22 04:56:00